Akron, CO

9:01 AM MST on January 21, 2017 (GMT -0700)
Akron

Weather History for KAKO - March, 2011

Change the Weather History Date:

Sunday, March 13, 2011

  Actual Average Record
Temperature  
Mean Temperature 39 °F 39 °F  
Max Temperature 48 °F 52 °F 76 °F (2007)
Min Temperature 30 °F 26 °F -4 °F (1950)
Degree Days  
Heating Degree Days 26    
Month to date heating degree days  
Cooling Degree Days 0    
Month to date cooling degree days  
Moisture  
Dew Point 27 °F    
Average Humidity 79    
Maximum Humidity 93    
Minimum Humidity 50    
Precipitation  
Precipitation 0.00 in 0.02 in 0.85 in (1973)
Month to date precipitation 0.29  
Year to date precipitation 1.03  
Sea Level Pressure  
Sea Level Pressure 30.18 in    
Wind  
Wind Speed 11 mph (ESE)    
Max Wind Speed 16 mph    
Max Gust Speed 20 mph    
Visibility 6 miles    
Events Snow    
T = Trace of Precipitation, MM = Missing Value Source: NWS Daily Summary

Daily Weather History Graph

Daily Weather History Graph

Search for Another Location

Airport or City:

Trip Planner

Search our weather history database for the weather conditions in past years. The results will help you decide how hot, cold, wet, or windy it might be!

Date:

Astronomy

Mar. 13, 2011 Rise Set
Actual Time 7:07 AM MDT 6:57 PM MDT
Civil Twilight 6:40 AM MDT 7:24 PM MDT
Nautical Twilight 6:09 AM MDT 7:55 PM MDT
Astronomical Twilight 5:37 AM MDT 8:27 PM MDT
Moon 12:14 PM MDT (3/13) 3:42 AM MDT (3/13)
Length of Visible Light 12h 43m
Length of Day
11h 49m
First Quarter, 58% of the Moon is Illuminated
Mar 13
First Quarter
Mar 19
Full
Mar 26
Last Quarter
Apr 3
New
Apr 11
First Quarter

Hourly Weather History & Observations

Time (MDT) Temp. Windchill Dew Point Humidity Pressure Visibility Wind Dir Wind Speed Gust Speed Precip Events Conditions
12:53 AM 35.1 °F 25.9 °F 21.0 °F 57% 30.03 in 10.0 mi SSE 13.8 mph - N/A   Clear
1:53 AM 35.1 °F 26.9 °F 21.0 °F 57% 30.02 in 10.0 mi SSE 11.5 mph - N/A   Mostly Cloudy
3:53 AM 35.1 °F 26.9 °F 21.0 °F 57% 30.01 in 10.0 mi SSE 11.5 mph - N/A   Mostly Cloudy
4:53 AM 36.0 °F 29.0 °F 21.0 °F 55% 30.04 in 10.0 mi SSE 9.2 mph - N/A   Overcast
6:49 AM 33.8 °F 30.8 °F 21.2 °F 60% 30.14 in 10.0 mi East 3.5 mph - N/A   Overcast
6:53 AM 34.0 °F 31.0 °F 21.9 °F 61% 30.14 in 10.0 mi East 3.5 mph - N/A   Overcast
7:12 AM 32.0 °F 25.6 °F 24.8 °F 75% 30.15 in 1.5 mi SE 6.9 mph - 0.00 in Snow Light Snow
7:17 AM 32.0 °F 23.6 °F 24.8 °F 75% 30.15 in 1.0 mi SE 10.4 mph - 0.00 in Snow Light Snow
7:28 AM 30.2 °F 22.6 °F 26.6 °F 86% 30.15 in 1.0 mi SE 8.1 mph - 0.00 in Snow Light Snow
7:36 AM 30.2 °F 21.9 °F 26.6 °F 86% 30.14 in 0.8 mi ESE 9.2 mph - 0.00 in Snow Light Snow
7:43 AM 30.2 °F 22.6 °F 28.4 °F 93% 30.15 in 1.2 mi ESE 8.1 mph - 0.00 in Snow Light Snow
7:51 AM 30.2 °F 21.9 °F 28.4 °F 93% 30.15 in 2.0 mi ESE 9.2 mph - 0.00 in Snow Light Snow
7:52 AM 30.0 °F 22.4 °F 28.0 °F 92% 30.17 in 2.0 mi ESE 8.1 mph - 0.00 in Snow Light Snow
8:09 AM 30.2 °F 21.9 °F 28.4 °F 93% 30.15 in 3.0 mi ESE 9.2 mph - 0.00 in Snow Light Snow
8:19 AM 30.2 °F 21.3 °F 28.4 °F 93% 30.15 in 4.0 mi ESE 10.4 mph - 0.00 in   Overcast
8:44 AM 30.2 °F 21.9 °F 28.4 °F 93% 30.15 in 5.0 mi ESE 9.2 mph - 0.00 in   Overcast
8:53 AM 30.0 °F 20.5 °F 28.0 °F 92% 30.19 in 3.0 mi East 11.5 mph - 0.00 in Snow Light Snow
9:05 AM 30.2 °F 18.9 °F 28.4 °F 93% 30.15 in 1.8 mi ESE 16.1 mph - 0.00 in Snow Light Snow
9:53 AM 30.0 °F 19.1 °F 28.0 °F 92% 30.21 in 1.8 mi ESE 15.0 mph - 0.00 in Snow Light Snow
10:03 AM 30.2 °F 18.9 °F 28.4 °F 93% 30.16 in 2.5 mi ESE 16.1 mph - 0.00 in Snow Light Snow
10:10 AM 30.2 °F 20.2 °F 28.4 °F 93% 30.17 in 4.0 mi SE 12.7 mph - 0.00 in   Overcast
10:25 AM 30.2 °F 20.2 °F 28.4 °F 93% 30.18 in 1.8 mi ESE 12.7 mph - 0.00 in Snow Light Snow
10:33 AM 30.2 °F 19.8 °F 28.4 °F 93% 30.18 in 1.2 mi SE 13.8 mph - 0.00 in Snow Light Snow
10:41 AM 30.2 °F 19.8 °F 28.4 °F 93% 30.18 in 1.8 mi SE 13.8 mph - 0.00 in Snow Light Snow
10:53 AM 30.9 °F 20.2 °F 28.9 °F 92% 30.24 in 2.0 mi SE 15.0 mph - 0.00 in Snow Light Snow
11:05 AM 30.2 °F 19.8 °F 28.4 °F 93% 30.18 in 1.5 mi SE 13.8 mph - 0.00 in Snow Light Snow
11:11 AM 30.2 °F 21.3 °F 28.4 °F 93% 30.19 in 1.2 mi SSE 10.4 mph - 0.00 in Snow Light Snow
11:19 AM 32.0 °F 22.1 °F 30.2 °F 93% 30.18 in 1.8 mi SE 13.8 mph - 0.00 in Snow Light Snow
11:26 AM 33.8 °F 24.3 °F 30.2 °F 87% 30.18 in 2.5 mi SE 13.8 mph - 0.00 in Snow Light Snow
11:53 AM 34.0 °F 24.6 °F 30.0 °F 85% 30.24 in 10.0 mi SSE 13.8 mph - 0.00 in   Scattered Clouds
12:53 PM 43.0 °F 38.2 °F 32.0 °F 65% 30.20 in 10.0 mi East 8.1 mph - N/A   Mostly Cloudy
1:53 PM 48.0 °F - 30.0 °F 50% 30.17 in 10.0 mi North 12.7 mph 17.3 mph N/A   Mostly Cloudy
2:53 PM 46.9 °F - 30.0 °F 52% 30.18 in 10.0 mi North 12.7 mph 19.6 mph N/A   Partly Cloudy
3:53 PM 48.9 °F - 30.9 °F 50% 30.17 in 10.0 mi NE 11.5 mph 17.3 mph N/A   Clear
4:53 PM 46.9 °F - 32.0 °F 56% 30.19 in 10.0 mi ENE 8.1 mph - N/A   Clear
5:53 PM 45.0 °F 41.2 °F 32.0 °F 60% 30.21 in 10.0 mi East 6.9 mph - N/A   Clear
6:53 PM 37.9 °F 32.1 °F 30.9 °F 76% 30.25 in 10.0 mi East 8.1 mph - N/A   Clear
7:53 PM 33.1 °F 26.1 °F 30.0 °F 89% 30.30 in 10.0 mi East 8.1 mph - N/A   Clear
8:53 PM 32.0 °F 24.8 °F 28.9 °F 88% 30.33 in 9.0 mi SE 8.1 mph - N/A   Clear
9:53 PM 32.0 °F 23.6 °F 27.0 °F 82% 30.34 in 10.0 mi South 10.4 mph - N/A   Clear
10:53 PM 30.9 °F 22.8 °F 24.1 °F 76% 30.34 in 10.0 mi South 9.2 mph - N/A   Clear
11:53 PM 30.9 °F 21.7 °F 24.1 °F 76% 30.32 in 10.0 mi SW 11.5 mph - N/A   Clear
12:53 AM 33.1 °F 23.9 °F 24.1 °F 70% 30.27 in 10.0 mi SW 12.7 mph - N/A   Clear